Retour au catalogue

STARLINK-36284

ActifCommunicationsVLEO
NORAD 67194·PAYLOAD·🇺🇸 United States

Lancé Dec 17, 2025 depuis Vandenberg Space Force Base

Loading…

Prochains Passages (prochaines 24 heures)

TLE

FraisSource: CelesTrak SupGP

Époque: Sep 15, 2026, 04:03 UTC

1 67194C 25304C   26258.16923611 -.00014369  00000+0 -12048-2 0  2582
2 67194  70.0009  56.8162 0002560 274.2437 109.4087 14.98320466    18

Suivez STARLINK-36284 en temps réel avec AllMySat

Download on the App Store